DMSP 5D-3 F17 DEB

基本信息
目录编号:
29524
目录名称:
DMSP 5D-3 F17 DEB
国际标识:
2006-050C
轨道中心:
EARTH
物体状态:
在轨
发射日期:
2006-11-04 UTC
轨道信息
数据来源: 国际轨道数据
星历时间: 2026-07-13T08:34:25+0800
半长轴: 7167.91km
偏心率: 0.0007503
轨道倾角: 98.551°
近地点辐角: 76.466°
升交点赤经: 213.806°
平近点角: 312.110°
近地点: 784.394km
远地点: 795.152km
周期: 100.658分钟
每日圈数: 14.305862
详细信息
发射场:
AFWTR
轨道高度:
LEO
数据来源:
AOE Integration Group
参考系:
TEME
时间系统:
UTC
历元类型:
SGP4
2D轨道图
3D轨道图
轨道高度分析图
轨道倾角分析图
轨道综合分析图
查看轨道综合分析图